TDR403 LDDU-LIME

Flight info

Callsign TDR403
Flight time 1h 14m
Altitude 34000
Route AMUGO DCT EDUGI DCT BOA DCT OGPUD DCT BETMU DCT OSBUL
Aircraft A320/M-SDE3FGHIRWY/LB1

Departure

Time 2026-04-28 10:37
Airport Dubrovnik Ruđer Bošković Airport (LDDU)

Arrival

Time 2026-04-28 11:51
Airport Il Caravaggio International Airport (LIME)
Time Latitude Longitude Altitude Speed Heading
2026-04-28 10:08 42.56089 18.26303 534 ft 0 kts 208°
2026-04-28 10:29 42.56102 18.26312 534 ft 4 kts 208°
2026-04-28 10:29 42.56125 18.26329 534 ft 4 kts 217°
2026-04-28 10:29 42.56135 18.26353 534 ft 4 kts 287°
2026-04-28 10:29 42.56126 18.26378 534 ft 4 kts 298°
2026-04-28 10:30 42.56122 18.26389 534 ft 0 kts 298°
2026-04-28 10:33 42.56122 18.26388 534 ft 1 kts 298°
2026-04-28 10:33 42.56154 18.26309 534 ft 17 kts 298°
2026-04-28 10:33 42.56208 18.26168 534 ft 16 kts 298°
2026-04-28 10:33 42.56258 18.26045 534 ft 14 kts 299°
2026-04-28 10:34 42.56303 18.25935 534 ft 13 kts 299°
2026-04-28 10:34 42.56342 18.25838 534 ft 11 kts 298°
2026-04-28 10:34 42.56375 18.25750 534 ft 12 kts 297°
2026-04-28 10:34 42.56441 18.25587 534 ft 27 kts 298°
2026-04-28 10:35 42.56542 18.25335 534 ft 32 kts 298°
2026-04-28 10:35 42.56647 18.25068 534 ft 32 kts 298°
2026-04-28 10:35 42.56747 18.24815 534 ft 30 kts 298°
2026-04-28 10:35 42.56848 18.24673 533 ft 18 kts 355°
2026-04-28 10:36 42.56929 18.24769 533 ft 16 kts 84°
2026-04-28 10:36 42.56870 18.24972 533 ft 45 kts 118°
2026-04-28 10:36 42.56607 18.25624 535 ft 109 kts 118°
2026-04-28 10:36 42.56161 18.26756 536 ft 160 kts 118°
2026-04-28 10:37 42.55616 18.28133 1075 ft 164 kts 120°
2026-04-28 10:37 42.55077 18.29499 1795 ft 165 kts 120°
2026-04-28 10:37 42.54534 18.30868 2429 ft 165 kts 121°
2026-04-28 10:37 42.53986 18.32240 3048 ft 165 kts 120°
2026-04-28 10:38 42.53359 18.33537 3661 ft 167 kts 145°
2026-04-28 10:38 42.52237 18.33966 4015 ft 181 kts 188°
2026-04-28 10:38 42.51079 18.33180 4252 ft 200 kts 228°
2026-04-28 10:38 42.50187 18.31651 4627 ft 216 kts 224°
2026-04-28 10:39 42.48839 18.30765 5176 ft 221 kts 190°
2026-04-28 10:39 42.47315 18.30397 5796 ft 224 kts 192°
2026-04-28 10:39 42.45729 18.29937 6136 ft 244 kts 193°
2026-04-28 10:39 42.43994 18.29396 6519 ft 266 kts 194°
2026-04-28 10:40 42.42161 18.28809 7177 ft 274 kts 194°
2026-04-28 10:40 42.40408 18.27806 7952 ft 277 kts 219°
2026-04-28 10:40 42.39297 18.25701 8735 ft 281 kts 252°
2026-04-28 10:40 42.39177 18.23067 9535 ft 286 kts 278°
2026-04-28 10:41 42.39707 18.20460 10287 ft 291 kts 287°
2026-04-28 10:41 42.40352 18.17763 10585 ft 313 kts 287°
2026-04-28 10:41 42.41045 18.14859 10787 ft 336 kts 287°
2026-04-28 10:41 42.41777 18.11791 11236 ft 347 kts 287°
2026-04-28 10:42 42.42522 18.08667 11933 ft 351 kts 287°
2026-04-28 10:42 42.43275 18.05511 12641 ft 354 kts 288°
2026-04-28 10:42 42.44034 18.02328 13358 ft 357 kts 288°
2026-04-28 10:42 42.44798 17.99119 14049 ft 359 kts 288°
2026-04-28 10:43 42.45566 17.95884 14672 ft 362 kts 288°
2026-04-28 10:43 42.46339 17.92631 15295 ft 364 kts 288°
2026-04-28 10:43 42.47118 17.89351 15910 ft 367 kts 288°
2026-04-28 10:43 42.47903 17.86047 16521 ft 370 kts 288°
2026-04-28 10:44 42.48694 17.82721 17130 ft 373 kts 288°
2026-04-28 10:44 42.49491 17.79367 17735 ft 375 kts 288°
2026-04-28 10:44 42.50293 17.75985 18332 ft 378 kts 288°
2026-04-28 10:44 42.51098 17.72577 18862 ft 381 kts 288°
2026-04-28 10:45 42.51904 17.69148 19382 ft 384 kts 288°
2026-04-28 10:45 42.52715 17.65689 19916 ft 386 kts 288°
2026-04-28 10:45 42.53530 17.62209 20442 ft 389 kts 288°
2026-04-28 10:45 42.54389 17.58724 20951 ft 391 kts 292°
2026-04-28 10:46 42.55582 17.55405 21448 ft 393 kts 298°
2026-04-28 10:46 42.56865 17.52120 21939 ft 395 kts 298°
2026-04-28 10:46 42.58148 17.48810 22419 ft 398 kts 298°
2026-04-28 10:46 42.59436 17.45472 22885 ft 400 kts 298°
2026-04-28 10:47 42.60728 17.42113 23331 ft 403 kts 298°
2026-04-28 10:47 42.62028 17.38735 23751 ft 405 kts 298°
2026-04-28 10:47 42.63338 17.35326 24093 ft 408 kts 298°
2026-04-28 10:47 42.64654 17.31902 24444 ft 410 kts 298°
2026-04-28 10:48 42.65978 17.28457 24799 ft 412 kts 298°
2026-04-28 10:48 42.67307 17.24993 25147 ft 414 kts 298°
2026-04-28 10:48 42.68640 17.21515 25489 ft 416 kts 298°
2026-04-28 10:48 42.69963 17.18062 25820 ft 418 kts 298°
2026-04-28 10:49 42.71308 17.14549 26152 ft 420 kts 298°
2026-04-28 10:49 42.72677 17.10975 26483 ft 422 kts 298°
2026-04-28 10:49 42.74011 17.07475 26806 ft 423 kts 298°
2026-04-28 10:49 42.75367 17.03914 27114 ft 425 kts 297°
2026-04-28 10:50 42.76727 17.00337 27426 ft 426 kts 297°
2026-04-28 10:50 42.78092 16.96743 27722 ft 428 kts 297°
2026-04-28 10:50 42.79459 16.93138 28021 ft 430 kts 297°
2026-04-28 10:50 42.80831 16.89513 28318 ft 431 kts 297°
2026-04-28 10:51 42.82203 16.85878 28577 ft 433 kts 297°
2026-04-28 10:51 42.83582 16.82220 28845 ft 434 kts 297°
2026-04-28 10:51 42.84966 16.78557 29106 ft 436 kts 297°
2026-04-28 10:51 42.86355 16.74881 29352 ft 437 kts 297°
2026-04-28 10:52 42.87747 16.71192 29592 ft 438 kts 297°
2026-04-28 10:52 42.89139 16.67493 29915 ft 438 kts 297°
2026-04-28 10:52 42.90526 16.63806 30239 ft 437 kts 297°
2026-04-28 10:52 42.91911 16.60123 30527 ft 436 kts 297°
2026-04-28 10:53 42.93289 16.56447 30795 ft 435 kts 297°
2026-04-28 10:53 42.94660 16.52777 31082 ft 434 kts 297°
2026-04-28 10:53 42.96028 16.49111 31370 ft 433 kts 297°
2026-04-28 10:53 42.97392 16.45455 31649 ft 432 kts 297°
2026-04-28 10:54 42.98753 16.41802 31937 ft 431 kts 297°
2026-04-28 10:54 43.00111 16.38154 32220 ft 430 kts 297°
2026-04-28 10:54 43.01463 16.34514 32496 ft 429 kts 297°
2026-04-28 10:54 43.02811 16.30879 32781 ft 428 kts 297°
2026-04-28 10:55 43.04155 16.27253 33063 ft 428 kts 297°
2026-04-28 10:55 43.05497 16.23627 33348 ft 427 kts 297°
2026-04-28 10:55 43.06833 16.20010 33655 ft 426 kts 297°
2026-04-28 10:55 43.08166 16.16402 33964 ft 424 kts 297°
2026-04-28 10:56 43.09498 16.12800 34067 ft 424 kts 297°
2026-04-28 10:56 43.12153 16.05602 34083 ft 424 kts 297°
2026-04-28 10:57 43.14802 15.98398 34077 ft 423 kts 296°
2026-04-28 10:57 43.17441 15.91193 34086 ft 423 kts 296°
2026-04-28 10:58 43.20075 15.83981 34078 ft 423 kts 296°
2026-04-28 10:58 43.22708 15.76768 34080 ft 423 kts 296°
2026-04-28 10:59 43.25329 15.69546 34074 ft 423 kts 296°
2026-04-28 10:59 43.27946 15.62317 34072 ft 423 kts 296°
2026-04-28 11:00 43.30559 15.55086 34076 ft 423 kts 296°
2026-04-28 11:00 43.33163 15.47852 34080 ft 423 kts 296°
2026-04-28 11:01 43.35753 15.40666 34085 ft 423 kts 296°
2026-04-28 11:01 43.38357 15.33417 34078 ft 423 kts 296°
2026-04-28 11:02 43.40950 15.26168 34084 ft 422 kts 296°
2026-04-28 11:02 43.43533 15.18926 34091 ft 421 kts 296°
2026-04-28 11:03 43.46111 15.11690 34097 ft 421 kts 296°
2026-04-28 11:03 43.48683 15.04457 34093 ft 420 kts 296°
2026-04-28 11:04 43.51244 14.97228 34085 ft 420 kts 296°
2026-04-28 11:04 43.53797 14.89988 34064 ft 420 kts 295°
2026-04-28 11:05 43.56342 14.82750 34084 ft 419 kts 295°
2026-04-28 11:05 43.58883 14.75519 34086 ft 419 kts 295°
2026-04-28 11:06 43.61417 14.68288 34084 ft 418 kts 295°
2026-04-28 11:06 43.63943 14.61060 34080 ft 418 kts 295°
2026-04-28 11:07 43.66469 14.53832 34081 ft 418 kts 295°
2026-04-28 11:07 43.68984 14.46594 34078 ft 418 kts 295°
2026-04-28 11:08 43.71485 14.39350 34078 ft 417 kts 295°
2026-04-28 11:08 43.73985 14.32110 34087 ft 417 kts 295°
2026-04-28 11:09 43.76482 14.24872 34076 ft 417 kts 295°
2026-04-28 11:09 43.78951 14.17678 34080 ft 417 kts 294°
2026-04-28 11:10 43.81172 14.10279 34085 ft 416 kts 290°
2026-04-28 11:10 43.83159 14.02754 34081 ft 416 kts 289°
2026-04-28 11:11 43.85133 13.95218 34076 ft 416 kts 290°
2026-04-28 11:11 43.87159 13.87704 34072 ft 416 kts 290°
2026-04-28 11:12 43.89207 13.80198 34067 ft 416 kts 290°
2026-04-28 11:12 43.91250 13.72688 34065 ft 416 kts 290°
2026-04-28 11:13 43.93278 13.65165 34063 ft 416 kts 290°
2026-04-28 11:13 43.95294 13.57635 34060 ft 416 kts 290°
2026-04-28 11:14 43.97308 13.50107 34055 ft 416 kts 290°
2026-04-28 11:14 43.99315 13.42576 34054 ft 415 kts 290°
2026-04-28 11:15 44.01320 13.35053 34053 ft 415 kts 290°
2026-04-28 11:15 44.03320 13.27522 34059 ft 415 kts 290°
2026-04-28 11:16 44.04973 13.21255 34068 ft 415 kts 290°
2026-04-28 11:16 44.06964 13.13720 34054 ft 415 kts 290°
2026-04-28 11:17 44.08954 13.06178 34074 ft 415 kts 289°
2026-04-28 11:17 44.10930 12.98640 34075 ft 415 kts 289°
2026-04-28 11:18 44.12901 12.91096 34069 ft 414 kts 289°
2026-04-28 11:18 44.14861 12.83554 34067 ft 414 kts 289°
2026-04-28 11:19 44.16813 12.76006 34055 ft 414 kts 289°
2026-04-28 11:19 44.18761 12.68458 34055 ft 414 kts 289°
2026-04-28 11:20 44.20710 12.60912 34062 ft 414 kts 289°
2026-04-28 11:20 44.22660 12.53363 34080 ft 414 kts 289°
2026-04-28 11:21 44.24594 12.45803 34081 ft 414 kts 289°
2026-04-28 11:21 44.26524 12.38244 34079 ft 414 kts 289°
2026-04-28 11:22 44.28434 12.30724 34084 ft 414 kts 289°
2026-04-28 11:22 44.30356 12.23156 34077 ft 414 kts 289°
2026-04-28 11:23 44.32273 12.15584 34082 ft 414 kts 289°
2026-04-28 11:23 44.34183 12.08011 34089 ft 413 kts 289°
2026-04-28 11:23 44.35138 12.04217 33936 ft 414 kts 289°
2026-04-28 11:24 44.36091 12.00416 33663 ft 415 kts 288°
2026-04-28 11:24 44.37039 11.96611 33396 ft 415 kts 288°
2026-04-28 11:24 44.37990 11.92793 33120 ft 416 kts 288°
2026-04-28 11:24 44.38945 11.88970 32867 ft 417 kts 288°
2026-04-28 11:25 44.39901 11.85140 32608 ft 418 kts 288°
2026-04-28 11:25 44.40858 11.81296 32349 ft 419 kts 288°
2026-04-28 11:25 44.41817 11.77449 32087 ft 420 kts 288°
2026-04-28 11:25 44.42778 11.73586 31835 ft 421 kts 288°
2026-04-28 11:26 44.43739 11.69713 31572 ft 422 kts 288°
2026-04-28 11:26 44.44698 11.65830 31316 ft 423 kts 288°
2026-04-28 11:26 44.45659 11.61934 31068 ft 424 kts 288°
2026-04-28 11:26 44.46621 11.58036 30809 ft 425 kts 288°
2026-04-28 11:27 44.47584 11.54122 30559 ft 425 kts 288°
2026-04-28 11:27 44.48545 11.50200 30306 ft 426 kts 288°
2026-04-28 11:27 44.49509 11.46268 29962 ft 428 kts 288°
2026-04-28 11:27 44.50477 11.42334 29366 ft 426 kts 288°
2026-04-28 11:28 44.51432 11.38432 28648 ft 421 kts 288°
2026-04-28 11:28 44.52377 11.34560 28104 ft 419 kts 288°
2026-04-28 11:28 44.53317 11.30702 27689 ft 417 kts 288°
2026-04-28 11:28 44.54279 11.26874 27294 ft 416 kts 289°
2026-04-28 11:29 44.55320 11.23107 27021 ft 414 kts 290°
2026-04-28 11:29 44.56415 11.19390 26641 ft 412 kts 291°
2026-04-28 11:29 44.57532 11.15703 26265 ft 410 kts 291°
2026-04-28 11:29 44.58644 11.12038 25895 ft 407 kts 291°
2026-04-28 11:30 44.59740 11.08383 25527 ft 405 kts 291°
2026-04-28 11:30 44.61872 11.01101 24815 ft 401 kts 290°
2026-04-28 11:30 44.62916 10.97480 24454 ft 399 kts 290°
2026-04-28 11:31 44.63952 10.93868 24107 ft 398 kts 290°
2026-04-28 11:31 44.64977 10.90271 23757 ft 396 kts 290°
2026-04-28 11:31 44.65995 10.86689 23351 ft 394 kts 290°
2026-04-28 11:31 44.67013 10.83123 22947 ft 392 kts 290°
2026-04-28 11:32 44.68031 10.79576 22554 ft 391 kts 290°
2026-04-28 11:32 44.69044 10.76046 22154 ft 389 kts 290°
2026-04-28 11:32 44.70050 10.72534 21767 ft 386 kts 290°
2026-04-28 11:32 44.71045 10.69050 21390 ft 383 kts 290°
2026-04-28 11:33 44.72028 10.65587 21003 ft 380 kts 290°
2026-04-28 11:33 44.73003 10.62140 20626 ft 379 kts 290°
2026-04-28 11:33 44.73972 10.58708 20242 ft 377 kts 290°
2026-04-28 11:33 44.74932 10.55311 19875 ft 370 kts 290°
2026-04-28 11:34 44.75874 10.51974 19513 ft 364 kts 290°
2026-04-28 11:34 44.76799 10.48691 19146 ft 358 kts 290°
2026-04-28 11:34 44.77708 10.45458 18801 ft 352 kts 290°
2026-04-28 11:34 44.78598 10.42293 18577 ft 343 kts 290°
2026-04-28 11:35 44.79464 10.39202 18325 ft 336 kts 290°
2026-04-28 11:35 44.80309 10.36182 18055 ft 328 kts 290°
2026-04-28 11:35 44.81130 10.33265 17716 ft 323 kts 290°
2026-04-28 11:35 44.82139 10.30478 17469 ft 316 kts 303°
2026-04-28 11:36 44.83607 10.28210 17223 ft 314 kts 317°
2026-04-28 11:36 44.85416 10.26474 16888 ft 315 kts 327°
2026-04-28 11:36 44.87299 10.24905 16507 ft 313 kts 325°
2026-04-28 11:36 44.89137 10.23274 16145 ft 312 kts 324°
2026-04-28 11:37 44.90955 10.21624 15803 ft 310 kts 324°
2026-04-28 11:37 44.92765 10.19983 15446 ft 309 kts 324°
2026-04-28 11:37 44.94573 10.18350 15092 ft 308 kts 325°
2026-04-28 11:37 44.96379 10.16735 14794 ft 306 kts 325°
2026-04-28 11:38 44.98201 10.15120 14446 ft 305 kts 326°
2026-04-28 11:38 45.00002 10.13535 14095 ft 304 kts 326°
2026-04-28 11:38 45.01763 10.11987 13920 ft 298 kts 326°
2026-04-28 11:38 45.03492 10.10455 13805 ft 289 kts 326°
2026-04-28 11:39 45.05264 10.09204 13651 ft 284 kts 339°
2026-04-28 11:39 45.07185 10.08576 13371 ft 283 kts 348°
2026-04-28 11:39 45.09116 10.08092 13064 ft 281 kts 347°
2026-04-28 11:39 45.11033 10.07562 12737 ft 280 kts 346°
2026-04-28 11:40 45.12938 10.07011 12425 ft 279 kts 346°
2026-04-28 11:40 45.14834 10.06452 12125 ft 278 kts 346°
2026-04-28 11:40 45.16721 10.05903 11817 ft 276 kts 346°
2026-04-28 11:40 45.18602 10.05365 11500 ft 275 kts 347°
2026-04-28 11:41 45.20476 10.04832 11171 ft 275 kts 347°
2026-04-28 11:41 45.22350 10.04301 10837 ft 274 kts 346°
2026-04-28 11:41 45.24215 10.03767 10526 ft 273 kts 346°
2026-04-28 11:41 45.26073 10.03226 10214 ft 272 kts 347°
2026-04-28 11:42 45.27923 10.02695 9913 ft 270 kts 347°
2026-04-28 11:42 45.29766 10.02169 9539 ft 270 kts 347°
2026-04-28 11:42 45.31606 10.01643 9177 ft 269 kts 347°
2026-04-28 11:42 45.33438 10.01117 8892 ft 265 kts 347°
2026-04-28 11:43 45.35204 10.00610 8838 ft 253 kts 347°
2026-04-28 11:43 45.36897 10.00125 8663 ft 246 kts 347°
2026-04-28 11:43 45.38566 9.99647 8379 ft 244 kts 347°
2026-04-28 11:43 45.40227 9.99171 8092 ft 243 kts 347°
2026-04-28 11:44 45.41882 9.98690 7780 ft 243 kts 347°
2026-04-28 11:44 45.43536 9.98208 7483 ft 242 kts 347°
2026-04-28 11:44 45.45180 9.97736 7216 ft 240 kts 348°
2026-04-28 11:44 45.46788 9.97274 7061 ft 232 kts 348°
2026-04-28 11:45 45.48345 9.96823 6902 ft 225 kts 347°
2026-04-28 11:45 45.49842 9.96398 6748 ft 215 kts 350°
2026-04-28 11:45 45.51337 9.96289 6357 ft 216 kts 359°
2026-04-28 11:45 45.52836 9.96242 6017 ft 215 kts 358°
2026-04-28 11:46 45.54327 9.96174 5612 ft 215 kts 358°
2026-04-28 11:46 45.55824 9.96102 5267 ft 213 kts 358°
2026-04-28 11:46 45.57285 9.96035 4954 ft 209 kts 358°
2026-04-28 11:46 45.58729 9.95968 4607 ft 207 kts 358°
2026-04-28 11:47 45.60149 9.95731 4234 ft 205 kts 343°
2026-04-28 11:47 45.61390 9.94828 3916 ft 203 kts 322°
2026-04-28 11:47 45.62324 9.93380 3709 ft 196 kts 303°
2026-04-28 11:47 45.62869 9.91628 3467 ft 192 kts 284°
2026-04-28 11:48 45.63209 9.89795 3231 ft 190 kts 286°
2026-04-28 11:48 45.63558 9.87986 2976 ft 188 kts 285°
2026-04-28 11:48 45.63888 9.86198 2732 ft 185 kts 285°
2026-04-28 11:48 45.64220 9.84433 2487 ft 182 kts 285°
2026-04-28 11:49 45.64543 9.82716 2238 ft 177 kts 285°
2026-04-28 11:49 45.64852 9.81055 2058 ft 164 kts 285°
2026-04-28 11:49 45.65136 9.79534 1807 ft 155 kts 285°
2026-04-28 11:49 45.65408 9.78069 1615 ft 150 kts 286°
2026-04-28 11:50 45.65678 9.76636 1419 ft 149 kts 286°
2026-04-28 11:50 45.65944 9.75209 1215 ft 148 kts 285°
2026-04-28 11:50 45.66207 9.73800 1022 ft 146 kts 285°
2026-04-28 11:50 45.66468 9.72395 822 ft 147 kts 284°
2026-04-28 11:51 45.66710 9.71096 790 ft 117 kts 285°
2026-04-28 11:51 45.66869 9.70242 787 ft 49 kts 284°
2026-04-28 11:51 45.66872 9.69967 787 ft 24 kts 247°
2026-04-28 11:51 45.66782 9.69862 787 ft 16 kts 154°
2026-04-28 11:52 45.66740 9.70013 787 ft 17 kts 104°
2026-04-28 11:52 45.66707 9.70189 787 ft 19 kts 104°
2026-04-28 11:52 45.66671 9.70383 787 ft 21 kts 104°
2026-04-28 11:52 45.66633 9.70592 787 ft 23 kts 105°
2026-04-28 11:53 45.66604 9.70720 787 ft 5 kts 137°
2026-04-28 11:53 45.66563 9.70715 787 ft 8 kts 195°
2026-04-28 11:53 45.66531 9.70703 787 ft 2 kts 195°
2026-04-28 11:53 45.66528 9.70702 787 ft 0 kts 195°